Location: Wanzleben
(52.0609°N, 11.4408°E)
Time: 18:06:23
(UTC+00:00)

ARIANE 5 R/B - Pass Details

Date: 18 September 2020
Orbit: 620 x 657 km, 98.2° (Epoch: 09 October)

Event Time Altitude Azimuth Distance (km) Brightness Sun altitude
Exits shadow 19:37:43 52° 95° (E) 781 2.7 -20.7°
Maximum altitude 19:38:10 55° 70° (ENE) 757 2.7 -20.8°
Drops below altitude 10° 19:42:25 10° 353° (N) 2,004 5.7 -21.3°
Sets 19:44:38 0° 349° (N) 2,913 6.7 -21.6°
